Temp
54 54 54 55 55 55 55 55 56 56 56 56 56 56 57 57 57 58 60 71 66 61 65 67 69 66 68 72 67 73 75 78 77 71 73 75 75 78 77 79 71 73 70 71 73 69 66 90 81 75 79 84 87 88
54 54 54 54 54 55 55 55 55 55 56 56 56 56 56 56 56 57 56 72 74 63 65 71 71 75 73 72 67 71 71 72 72 71 77 79 75 79 69 69 81 73 67 62 67 62 68 86 83 85 87 84 85 85
53 53 53 53 54 54 55 55 55 55 56 56 56 56 56 56 56 56 57 63 67 65 67 69 67 75 79 77 80 65 74 71 72 74 71 75 70 78 69 68 72 71 75 73 64 59 59 79 82 84 86 84 87 89
53 53 54 54 54 54 54 55 55 55 55 56 56 56 56 56 56 56 56 64 66 64 59 67 75 71 77 78 75 76 73 74 74 74 72 73 72 82 75 63 54 66 59 60 71 60 75 77 81 84 85 87 87 89
53 53 54 53 53 54 54 54 54 55 55 55 55 56 56 55 55 58 62 65 69 61 57 62 75 74 75 73 73 74 72 69 70 70 71 70 78 74 78 77 73 82 69 69 65 72 74 74 81 84 83 83 85 85
52 53 53 53 53 53 54 54 54 55 55 55 55 55 55 55 55 58 59 67 67 68 59 61 75 71 73 72 69 70 73 69 69 69 71 76 79 72 68 68 80 83 81 80 73 79 78 80 84 85 82 83 85 84
52 52 53 53 53 53 53 54 54 54 55 55 55 55 55 54 58 53 49 58 56 62 58 60 66 73 74 72 71 71 71 72 73 72 69 69 72 72 68 63 76 81 80 79 81 79 75 79 78 82 82 83 82 85
53 52 52 53 53 53 53 53 53 54 55 55 55 55 54 54 54 57 65 58 58 60 63 57 64 67 74 69 66 75 69 71 70 71 75 71 73 71 64 72 76 78 78 78 78 80 79 79 79 80 81 81 80 80
53 53 52 53 53 53 53 54 54 54 55 55 55 55 57 57 57 58 58 60 65 60 54 61 59 59 75 71 72 70 72 64 73 66 69 73 69 64 71 72 74 76 75 75 78 78 77 76 76 77 78 79 78 78
52 52 52 52 53 53 53 53 53 53 54 55 55 52 49 58 59 60 58 58 58 62 61 56 67 62 70 70 67 69 70 66 62 68 75 68 67 75 78 80 79 78 77 77 72 71 73 73 74 75 76 78 78 79
51 52 52 52 52 53 53 53 52 53 53 56 49 50 59 58 63 61 52 54 58 55 62 63 65 62 72 62 64 69 65 69 60 67 67 65 64 68 75 74 75 76 76 76 76 76 76 75 74 74 75 76 77 79
52 51 52 52 53 53 53 52 52 54 57 53 51 58 64 59 56 50 52 56 57 55 63 63 63 66 66 68 64 65 61 64 56 70 64 60 55 64 67 69 72 73 74 74 75 73 74 74 75 74 74 75 76 78
51 51 51 52 52 53 52 52 52 54 54 57 51 49 51 50 37 44 43 52 54 62 64 65 60 66 66 67 64 62 55 57 69 60 59 55 57 62 63 65 67 69 71 71 71 72 72 72 75 74 73 75 76 77
52 52 52 52 53 53 53 52 53 53 49 45 42 36 44 45 51 55 58 60 64 65 64 66 62 59 64 60 63 55 62 63 55 54 53 55 56 58 61 64 63 64 65 66 67 69 69 70 71 73 74 75 76 76
51 52 53 53 53 53 53 53 54 56 52 47 49 38 49 59 63 60 65 64 65 66 64 62 62 62 60 57 61 58 54 51 57 52 54 56 57 58 59 61 62 62 63 63 65 64 65 65 66 70 73 74 67 71
52 52 54 53 53 53 53 53 57 55 54 50 51 50 56 55 58 63 62 62 66 64 65 63 58 54 55 56 53 51 54 50 49 54 60 60 56 58 56 60 61 62 61 62 60 63 63 64 65 67 69 65 71 68
53 54 53 53 53 53 53 55 55 52 54 50 54 58 59 60 56 60 63 62 66 61 56 55 51 51 62 53 51 56 50 51 55 58 62 59 57 56 57 58 61 60 58 61 62 57 58 58 60 64 63 64 66 67
56 56 53 52 55 55 56 56 53 52 48 55 51 54 53 53 58 59 62 64 61 57 57 52 59 54 49 48 49 52 55 60 60 60 62 61 60 61 59 58 60 60 59 62 62 58 58 60 60 59 65 67 68 67
57 57 53 53 54 53 53 56 58 48 54 57 56 60 62 62 64 65 64 64 63 60 61 56 53 54 52 55 53 56 56 59 59 60 60 62 63 62 60 59 58 60 59 58 59 65 63 64 65 65 64 64 62 65
53 53 53 53 54 51 50 55 62 53 51 55 58 58 59 59 62 63 64 62 62 58 55 53 54 55 57 57 60 59 59 60 56 56 60 65 66 64 64 65 70 69 69 71 71 58 72 70 73 72 72 68 64 63
51 56 53 54 53 55 53 53 54 55 55 55 61 54 58 62 59 58 58 64 59 56 54 59 58 62 61 60 62 63 59 58 56 57 58 60 65 66 67 69 67 71 70 68 69 69 60 72 73 75 74 72 70 64
51 54 53 53 51 52 49 52 49 53 52 51 53 56 52 53 54 53 57 57 56 58 60 59 58 61 58 60 60 59 59 58 60 58 53 58 65 61 66 68 71 70 71 71 71 72 73 75 74 74 73 70 67 73
51 50 48 48 42 39 41 51 46 48 41 43 48 47 48 47 47 53 47 48 50 54 58 61 61 62 61 61 60 57 61 63 59 60 60 63 63 66 72 72 74 71 72 72 73 73 72 62 69 73 73 73 72 72
49 44 40 38 39 36 41 40 43 41 42 40 40 36 39 42 44 40 36 42 52 56 58 59 59 55 55 57 57 61 58 62 67 70 70 71 71 71 73 74 76 77 76 76 74 73 73 73 63 73 73 73 72 72
39 38 36 32 36 36 38 39 39 36 34 37 34 37 39 42 39 41 42 48 51 52 54 56 56 59 58 63 68 64 70 72 71 69 72 73 73 73 73 75 75 76 78 76 73 73 72 73 73 72 72 71 70 70
36 47 41 47 39 42 48 44 42 43 48 46 49 53 48 48 49 45 51 55 56 56 58 63 67 69 68 69 68 71 72 76 74 71 73 75 75 73 71 70 71 72 77 75 73 71 71 71 71 71 71 70 58 67
48 56 58 66 66 64 59 62 63 61 58 57 58 59 58 51 49 53 64 69 69 71 74 75 74 73 72 74 76 77 78 78 75 75 77 76 77 75 72 69 67 68 73 74 73 72 70 70 70 70 70 71 71 70
63 66 62 66 66 68 63 64 62 61 62 66 65 57 54 52 54 65 66 72 74 75 75 77 79 79 76 76 78 78 77 78 78 76 76 75 76 76 74 74 73 53 69 71 70 71 70 69 67 66 65 65 67 69
66 69 69 64 66 66 65 64 64 67 70 66 60 59 61 67 70 68 71 75 77 76 73 73 74 78 78 78 77 76 76 75 69 64 63 63 65 67 71 71 70 69 69 70 57 57 63 65 65 67 67 67 69 69
65 72 66 65 62 62 67 72 69 74 74 73 72 69 68 68 72 76 74 74 72 72 74 75 75 74 72 71 71 71 75 75 72 67 62 62 64 68 68 67 66 66 67 67 67 67 57 63 63 68 66 65 63 60
71 69 67 66 65 68 72 75 77 76 76 74 74 69 67 70 74 76 75 75 75 75 74 72 73 73 71 70 68 67 66 71 71 70 68 68 67 66 65 65 65 65 66 64 64 64 63 62 62 62 63 60 55 54
62 63 61 53 59 71 74 72 72 71 70 64 68 71 71 68 63 69 75 75 73 71 63 70 70 70 72 71 72 71 53 70 69 68 66 65 64 64 64 63 64 64 62 62 62 62 61 59 59 59 58 56 54 53
66 67 68 67 66 64 70 68 66 63 67 65 69 70 68 66 61 69 76 76 73 73 73 72 72 72 70 69 69 68 60 69 61 47 47 42 42 49 58 63 63 62 60 60 60 61 59 57 56 56 55 53 52 51
MSLP
1019.34 1019.10 1019.17 1019.09 1018.90 1018.71 1018.75 1018.54 1018.41 1018.21 1018.09 1017.94 1017.69 1017.42 1017.09 1016.62 1016.21 1015.68 1013.55 1011.61 1011.07 1009.75 1008.12 1007.41 1006.57 1005.60 1004.53 1002.92 1001.64 1001.01 999.84 998.95 998.22 997.24 996.12 994.91 993.84 993.17 993.18 993.32 994.20 994.98 995.53 995.85 996.40 996.28 995.30 994.26 994.84 996.15 997.36 997.50 997.65 997.42
1018.68 1018.35 1018.43 1018.38 1018.22 1018.13 1018.14 1018.06 1017.95 1017.86 1017.71 1017.57 1017.39 1017.14 1016.84 1016.58 1016.19 1015.63 1013.89 1011.31 1010.84 1010.35 1008.38 1007.74 1007.36 1006.65 1006.31 1005.74 1005.00 1003.23 1001.94 1001.04 1000.71 999.11 996.99 995.71 994.77 994.05 994.17 994.26 994.73 995.72 996.65 998.57 999.44 1000.84 999.70 997.32 996.94 997.70 998.24 998.36 998.42 998.45
1017.76 1017.71 1017.76 1017.68 1017.55 1017.53 1017.57 1017.60 1017.49 1017.46 1017.33 1017.20 1017.09 1016.93 1016.57 1016.43 1016.17 1015.93 1014.73 1012.82 1011.14 1009.34 1007.47 1006.61 1006.31 1006.30 1006.13 1005.94 1005.66 1005.04 1002.94 1003.44 1002.17 1002.28 1000.31 997.79 996.27 995.57 995.87 997.85 996.95 998.38 998.99 999.41 1000.56 1001.34 1001.03 999.45 997.73 998.56 998.64 999.08 998.90 998.91
1016.96 1016.95 1017.01 1017.01 1016.96 1016.98 1017.04 1017.12 1017.08 1017.11 1017.00 1016.91 1016.81 1016.72 1016.40 1016.21 1015.97 1015.70 1014.59 1012.83 1011.58 1010.22 1007.75 1005.95 1006.26 1006.18 1006.29 1006.09 1006.03 1005.67 1005.20 1004.68 1003.87 1002.67 1000.96 999.08 997.58 996.94 997.09 998.67 1001.16 1000.26 999.78 1000.42 1000.39 1001.64 1000.99 999.99 999.53 999.04 999.11 999.30 999.08 998.98
1016.18 1016.23 1016.33 1016.39 1016.44 1016.49 1016.53 1016.62 1016.67 1016.78 1016.72 1016.61 1016.55 1016.43 1016.20 1015.95 1015.64 1015.10 1013.87 1012.82 1011.96 1011.51 1008.94 1006.78 1005.55 1005.80 1006.18 1006.31 1005.74 1005.67 1005.55 1005.03 1003.84 1002.32 1001.11 999.82 998.85 998.97 998.52 999.14 999.48 998.03 1000.28 999.88 1000.30 1000.60 1000.56 1000.85 1000.40 999.85 1000.15 1000.35 999.95 999.63
1015.33 1015.46 1015.64 1015.79 1015.91 1016.00 1016.05 1016.20 1016.31 1016.41 1016.35 1016.34 1016.34 1016.22 1016.05 1015.83 1015.57 1014.65 1012.33 1012.00 1012.23 1011.55 1010.17 1006.48 1005.00 1005.32 1005.72 1005.98 1005.94 1005.61 1005.11 1004.84 1004.19 1002.96 1001.78 1000.61 1000.26 1000.51 999.28 998.84 998.92 998.86 999.80 1000.13 1000.97 1001.21 1001.18 1001.11 1000.72 1000.76 1001.25 1001.20 1000.89 1000.51
1014.64 1014.79 1014.93 1015.10 1015.29 1015.47 1015.63 1015.82 1016.00 1016.06 1015.98 1016.05 1016.11 1016.03 1015.88 1015.67 1015.29 1014.51 1014.32 1013.60 1013.67 1013.17 1010.57 1007.08 1004.28 1004.82 1005.18 1005.21 1005.28 1005.20 1005.25 1004.45 1003.76 1002.77 1002.37 1001.70 1001.34 1001.53 1000.76 999.86 999.29 999.46 1000.02 1000.51 1000.72 1001.14 1001.48 1001.51 1001.43 1001.59 1001.50 1001.25 1001.07 1000.73
1013.93 1014.08 1014.29 1014.52 1014.77 1015.00 1015.24 1015.48 1015.61 1015.70 1015.70 1015.83 1015.88 1015.86 1015.64 1015.31 1014.92 1013.94 1012.78 1013.07 1013.55 1012.42 1010.12 1007.50 1004.54 1004.15 1004.89 1004.07 1004.05 1004.18 1004.10 1004.23 1003.78 1002.81 1002.00 1001.76 1001.71 1001.82 1001.21 1000.48 1000.19 1000.32 1000.73 1001.09 1001.53 1001.73 1001.99 1002.18 1002.21 1002.03 1001.87 1001.73 1001.58 1001.35
1013.47 1013.63 1013.81 1014.09 1014.37 1014.62 1014.88 1015.14 1015.35 1015.47 1015.58 1015.69 1015.82 1015.72 1015.25 1014.60 1012.95 1012.96 1013.01 1013.07 1012.69 1012.29 1009.92 1006.80 1004.62 1003.53 1004.17 1003.54 1003.44 1003.90 1003.38 1003.04 1002.80 1002.78 1002.30 1001.95 1001.51 1001.25 1001.08 1001.27 1001.23 1001.38 1001.71 1001.92 1002.23 1002.56 1002.77 1002.76 1002.69 1002.61 1002.42 1002.22 1002.02 1001.66
1012.98 1013.19 1013.33 1013.74 1014.14 1014.36 1014.70 1015.03 1015.23 1015.43 1015.56 1015.76 1015.74 1014.85 1013.72 1012.64 1012.70 1012.75 1013.07 1011.99 1011.58 1010.41 1009.64 1007.51 1005.33 1004.09 1004.08 1003.44 1003.48 1003.19 1003.39 1002.31 1001.86 1001.53 1001.59 1001.77 1001.65 1001.45 1001.24 1001.24 1001.40 1002.06 1002.63 1003.03 1003.34 1003.31 1003.34 1003.34 1003.28 1003.19 1003.01 1002.83 1002.52 1002.09
1012.56 1012.78 1013.10 1013.52 1013.87 1014.23 1014.64 1014.95 1015.24 1015.53 1015.70 1015.33 1014.71 1013.67 1012.74 1012.69 1012.42 1011.63 1011.21 1010.08 1009.33 1008.46 1007.53 1006.63 1005.62 1004.82 1004.75 1004.38 1003.71 1003.68 1003.07 1002.29 1001.86 1001.25 1001.64 1001.65 1002.39 1002.88 1002.55 1002.70 1003.28 1003.58 1003.92 1004.09 1004.19 1004.29 1004.27 1004.13 1004.00 1003.82 1003.60 1003.28 1002.87 1002.31
1012.40 1012.71 1012.98 1013.36 1013.76 1014.13 1014.52 1014.92 1015.24 1015.32 1014.46 1014.63 1014.39 1013.52 1012.27 1011.95 1011.72 1011.02 1009.65 1008.71 1007.57 1006.42 1006.02 1005.60 1005.72 1005.57 1005.76 1005.80 1004.82 1004.70 1003.99 1003.63 1002.67 1002.77 1002.86 1003.22 1005.78 1005.69 1005.23 1005.02 1004.92 1005.06 1005.12 1005.13 1005.14 1005.04 1004.91 1004.72 1004.53 1004.27 1003.92 1003.51 1003.06 1002.38
1012.68 1012.94 1013.17 1013.51 1013.91 1014.24 1014.68 1014.94 1015.17 1015.18 1014.97 1014.42 1014.33 1013.33 1012.35 1011.85 1011.27 1009.86 1008.54 1007.21 1006.30 1006.02 1006.01 1005.90 1006.10 1006.05 1006.33 1006.07 1005.54 1005.35 1004.96 1004.21 1003.79 1004.00 1003.85 1006.20 1007.47 1007.59 1007.43 1007.09 1006.77 1006.52 1006.24 1005.98 1005.70 1005.55 1005.40 1004.94 1004.46 1004.18 1003.75 1003.41 1002.87 1002.18
1012.81 1013.12 1013.44 1013.78 1014.06 1014.40 1014.67 1015.01 1015.43 1015.66 1015.51 1014.57 1013.98 1013.28 1011.93 1010.28 1009.13 1007.71 1006.72 1005.86 1005.92 1005.67 1005.93 1005.85 1005.97 1006.47 1006.27 1006.38 1005.65 1005.59 1005.12 1005.25 1004.91 1004.51 1005.70 1007.77 1008.82 1008.93 1008.67 1008.32 1007.90 1007.35 1007.20 1006.85 1006.35 1005.70 1005.10 1004.89 1004.36 1003.98 1003.64 1002.97 1002.28 1001.58
1013.36 1013.54 1013.64 1014.09 1014.33 1014.60 1014.90 1015.29 1015.54 1015.34 1014.70 1013.73 1012.85 1011.78 1010.24 1008.63 1007.69 1007.93 1007.38 1006.96 1006.91 1007.03 1007.13 1007.33 1007.13 1007.02 1006.58 1006.85 1006.29 1006.27 1006.13 1006.00 1005.52 1006.55 1007.94 1008.94 1009.56 1009.54 1009.10 1008.64 1008.12 1007.80 1007.40 1007.18 1006.69 1006.10 1005.52 1005.14 1004.64 1003.68 1003.24 1002.34 1001.63 1001.48
1013.79 1014.09 1014.04 1014.45 1014.75 1015.04 1015.36 1015.67 1015.54 1015.27 1014.16 1013.39 1012.31 1010.82 1009.91 1008.93 1007.95 1007.29 1007.38 1007.27 1007.50 1008.11 1008.23 1007.86 1007.56 1007.29 1006.90 1007.23 1007.22 1006.98 1006.39 1006.88 1008.42 1008.83 1008.96 1009.49 1009.83 1009.66 1009.58 1008.87 1008.43 1008.10 1007.88 1007.26 1006.88 1006.07 1005.80 1005.27 1004.61 1003.91 1003.08 1003.54 1002.88 1002.38
1014.04 1014.00 1014.62 1014.97 1015.32 1015.58 1015.66 1015.48 1015.21 1014.42 1013.05 1012.55 1011.07 1010.56 1009.62 1009.16 1008.84 1008.03 1007.77 1008.24 1008.38 1008.34 1008.16 1008.39 1007.92 1007.52 1007.25 1007.52 1008.04 1007.73 1008.45 1009.32 1009.66 1009.62 1009.47 1009.97 1010.13 1009.88 1009.62 1009.22 1008.76 1008.51 1008.12 1007.60 1007.20 1006.72 1006.43 1005.96 1005.31 1004.27 1004.10 1004.14 1004.00 1004.07
1014.14 1014.90 1015.28 1015.57 1015.70 1015.94 1015.69 1015.37 1014.41 1013.65 1012.70 1011.61 1010.96 1010.73 1010.83 1010.38 1009.22 1008.83 1008.66 1008.88 1009.31 1009.42 1009.47 1009.20 1008.62 1007.98 1008.29 1008.34 1008.84 1009.70 1009.72 1009.71 1009.94 1009.79 1009.65 1009.66 1009.75 1009.58 1009.53 1009.19 1008.81 1008.51 1008.16 1007.52 1006.98 1006.67 1006.40 1005.93 1005.61 1005.47 1005.01 1004.84 1004.76 1004.76
1014.95 1015.43 1015.88 1016.15 1016.16 1015.88 1014.70 1014.01 1013.60 1013.11 1011.76 1011.26 1011.24 1010.15 1009.62 1009.64 1009.66 1009.47 1009.36 1009.62 1010.14 1010.28 1009.93 1009.72 1009.10 1008.49 1008.63 1009.43 1009.87 1009.93 1010.13 1010.04 1009.86 1009.81 1009.85 1009.54 1009.27 1009.03 1008.95 1008.67 1008.21 1007.64 1007.38 1007.00 1006.60 1006.07 1005.90 1005.59 1005.40 1005.16 1005.22 1005.34 1005.27 1005.23
1016.18 1016.42 1016.60 1016.53 1016.37 1015.48 1014.30 1013.47 1013.13 1012.75 1011.94 1011.48 1011.07 1010.30 1010.10 1010.12 1010.13 1009.89 1009.93 1010.25 1010.33 1010.38 1010.00 1009.70 1009.27 1009.42 1009.34 1009.95 1010.52 1010.56 1010.46 1010.44 1010.40 1009.93 1009.30 1008.66 1008.17 1008.15 1007.93 1007.55 1006.67 1006.34 1006.02 1005.68 1005.45 1005.50 1004.84 1004.80 1004.60 1004.69 1004.70 1005.11 1005.25 1005.40
1016.84 1016.51 1016.87 1016.75 1015.94 1015.26 1014.58 1013.73 1012.92 1012.44 1012.21 1011.70 1011.10 1011.28 1010.87 1010.52 1010.50 1010.33 1010.43 1010.15 1010.18 1010.15 1009.92 1009.70 1009.84 1010.05 1010.32 1010.60 1010.49 1010.36 1010.34 1010.32 1010.23 1010.17 1009.64 1008.77 1008.14 1007.80 1007.26 1006.66 1006.29 1005.72 1005.52 1005.66 1005.36 1004.85 1004.75 1003.90 1003.75 1003.75 1004.08 1004.37 1004.44 1005.11
1017.08 1016.99 1016.94 1016.83 1016.09 1015.47 1015.23 1014.66 1014.22 1013.73 1013.27 1013.16 1012.65 1012.17 1011.97 1011.33 1011.09 1011.32 1011.52 1010.67 1010.43 1010.22 1010.18 1010.31 1010.55 1010.23 1010.30 1010.19 1010.26 1010.21 1010.18 1010.01 1009.92 1009.60 1009.10 1008.63 1007.98 1007.76 1006.98 1006.59 1005.82 1005.44 1004.96 1004.82 1004.55 1004.20 1003.95 1003.63 1003.93 1003.94 1004.01 1004.21 1004.24 1003.86
1017.48 1017.42 1017.23 1017.14 1016.84 1016.49 1016.02 1015.47 1014.52 1014.19 1014.16 1014.07 1013.79 1013.09 1013.13 1013.10 1013.36 1013.12 1012.55 1012.47 1012.00 1011.52 1010.92 1010.58 1010.41 1010.49 1010.41 1010.25 1010.03 1009.63 1009.49 1009.31 1008.99 1008.67 1008.25 1007.95 1007.47 1006.84 1006.02 1005.45 1004.90 1004.58 1004.07 1004.13 1004.46 1004.22 1004.04 1004.03 1003.73 1003.83 1003.84 1003.71 1003.55 1003.31
1017.29 1017.37 1017.29 1016.97 1016.70 1016.28 1016.11 1015.40 1015.06 1014.63 1014.40 1014.31 1014.13 1014.22 1014.33 1014.34 1014.54 1014.24 1013.54 1012.72 1011.69 1010.99 1010.54 1010.26 1010.23 1010.12 1010.16 1009.76 1009.35 1008.86 1008.46 1007.90 1007.72 1007.09 1006.91 1006.26 1005.59 1005.23 1005.05 1004.69 1004.16 1003.71 1003.60 1003.80 1003.98 1003.93 1003.93 1003.84 1003.83 1003.45 1003.14 1002.97 1002.82 1002.66
1016.81 1016.57 1016.15 1015.92 1016.13 1015.44 1014.48 1014.15 1014.05 1014.13 1013.53 1013.80 1013.59 1013.32 1013.57 1014.10 1013.75 1013.08 1012.36 1011.68 1011.20 1010.80 1010.39 1010.14 1009.85 1009.45 1008.88 1008.41 1007.92 1007.82 1007.28 1006.73 1006.34 1006.13 1006.06 1005.90 1005.54 1005.27 1004.83 1004.44 1004.14 1003.90 1003.61 1003.27 1003.39 1003.55 1003.60 1003.53 1003.45 1003.30 1003.10 1002.94 1002.75 1002.66
1014.03 1012.67 1012.42 1010.80 1012.66 1012.34 1011.04 1010.62 1010.75 1010.95 1010.44 1010.40 1010.30 1010.42 1011.43 1011.44 1011.25 1011.19 1010.39 1009.85 1009.65 1009.53 1009.09 1008.66 1008.07 1007.65 1007.47 1007.15 1006.81 1006.64 1006.42 1006.33 1006.32 1006.02 1005.84 1005.33 1004.89 1004.66 1004.58 1004.46 1004.14 1003.98 1003.91 1003.88 1003.99 1003.95 1003.82 1003.57 1003.25 1002.98 1002.70 1002.47 1002.34 1002.41
1010.60 1008.90 1008.44 1008.06 1007.76 1007.50 1007.63 1007.41 1007.27 1007.18 1007.25 1007.23 1007.54 1007.79 1008.22 1009.01 1009.87 1010.18 1008.87 1008.13 1007.93 1007.86 1007.52 1007.01 1006.93 1006.65 1006.51 1006.46 1006.27 1006.18 1005.96 1005.76 1005.67 1005.65 1005.44 1005.46 1005.25 1005.00 1004.95 1004.92 1004.94 1005.41 1005.01 1004.58 1004.30 1003.98 1003.76 1003.58 1003.32 1002.98 1002.63 1002.22 1001.97 1001.91
1008.54 1007.54 1006.68 1006.48 1006.28 1005.99 1005.85 1005.84 1005.80 1005.75 1005.84 1006.11 1006.40 1007.08 1007.98 1008.83 1009.03 1008.69 1008.55 1007.90 1007.56 1007.31 1007.09 1006.72 1006.45 1006.20 1006.29 1006.31 1006.10 1005.99 1005.91 1005.90 1005.66 1005.83 1005.91 1005.95 1005.76 1005.60 1005.63 1005.73 1005.65 1005.71 1005.43 1005.10 1004.95 1004.68 1004.44 1004.12 1003.83 1003.55 1003.35 1002.99 1002.52 1002.26
1007.37 1007.06 1006.83 1006.53 1006.36 1006.34 1006.07 1005.95 1005.94 1005.95 1006.22 1006.85 1007.46 1007.70 1008.10 1008.34 1008.36 1008.58 1008.16 1007.70 1007.41 1007.31 1007.16 1007.05 1006.89 1006.64 1006.53 1006.60 1006.64 1006.83 1006.81 1006.39 1006.43 1006.60 1006.62 1006.49 1006.33 1006.49 1006.65 1006.52 1006.36 1006.35 1006.16 1005.45 1005.01 1004.87 1004.72 1004.60 1004.24 1003.81 1003.15 1002.57 1002.09 1001.74
1007.73 1007.49 1007.34 1007.18 1006.89 1006.49 1006.26 1006.13 1006.16 1006.28 1006.37 1006.74 1007.15 1007.73 1008.05 1008.56 1008.53 1008.47 1008.53 1008.28 1008.01 1007.60 1007.60 1007.47 1007.24 1007.26 1007.38 1007.42 1007.46 1007.46 1007.26 1007.25 1007.47 1007.61 1007.59 1007.46 1007.47 1007.43 1007.29 1007.33 1007.30 1007.15 1006.63 1005.83 1005.37 1005.03 1004.73 1004.28 1003.75 1003.04 1002.66 1002.46 1002.43 1002.63
1007.91 1007.83 1007.51 1007.49 1007.24 1006.98 1006.61 1006.35 1006.13 1006.14 1006.21 1006.38 1006.78 1007.42 1007.90 1008.12 1008.31 1008.48 1008.53 1008.46 1008.29 1008.08 1008.25 1008.25 1008.16 1008.20 1008.32 1008.32 1008.40 1008.08 1008.08 1008.28 1008.08 1008.05 1008.33 1008.39 1008.25 1008.16 1008.18 1008.11 1007.90 1007.34 1006.68 1006.34 1006.02 1005.48 1005.17 1004.64 1004.20 1003.59 1003.14 1003.12 1003.62 1003.85
1009.19 1008.39 1008.53 1009.09 1008.11 1007.25 1006.95 1006.77 1006.67 1006.56 1006.84 1007.67 1007.38 1007.47 1007.84 1008.24 1008.39 1008.93 1008.91 1008.88 1008.97 1008.90 1008.87 1008.89 1009.02 1009.11 1009.16 1009.39 1009.07 1009.06 1009.38 1008.74 1008.42 1008.54 1008.74 1008.94 1008.95 1008.98 1008.85 1008.59 1007.83 1007.38 1007.21 1006.78 1006.27 1005.86 1005.43 1005.21 1004.76 1004.33 1004.01 1004.20 1004.50 1004.55
1008.61 1008.44 1008.00 1007.60 1007.59 1007.69 1007.05 1007.16 1007.55 1007.87 1007.45 1007.44 1007.13 1007.34 1007.82 1008.32 1008.81 1009.01 1009.25 1009.39 1009.50 1009.28 1009.11 1009.55 1009.83 1009.75 1009.89 1009.85 1009.72 1009.47 1009.23 1008.97 1008.87 1008.99 1009.25 1009.53 1009.63 1009.37 1009.09 1008.37 1007.95 1007.84 1007.43 1006.87 1006.46 1005.93 1005.75 1005.68 1005.40 1004.93 1004.79 1004.90 1005.10 1005.29
Wind_Speed
19 20 19 18 18 17 17 16 15 14 13 13 14 15 16 16 17 10 10 7 5 7 10 10 16 13 14 9 10 12 7 8 9 11 11 12 13 13 16 15 10 16 5 9 12 14 18 12 8 8 8 10 2 4
19 18 19 17 17 16 16 15 14 14 13 14 13 15 15 14 16 13 10 10 7 8 11 12 13 10 9 9 8 10 10 7 7 7 3 7 11 11 6 11 13 11 10 9 3 3 21 13 17 15 7 8 8 7
19 19 19 18 16 15 15 14 13 14 13 12 12 13 14 13 14 10 9 10 10 9 12 13 8 5 5 5 6 6 5 8 5 8 7 5 4 6 4 8 11 9 10 1 5 7 5 14 15 14 10 5 3 4
18 17 16 15 14 14 13 13 12 12 11 11 11 11 13 14 13 12 7 9 7 8 8 7 5 3 5 7 5 8 8 9 10 7 8 7 6 5 6 7 3 8 5 9 1 10 5 12 10 8 7 7 9 9
18 17 15 14 14 13 13 12 12 13 12 10 11 10 12 13 13 10 8 9 5 6 7 8 7 8 4 2 3 4 5 6 6 6 5 6 6 7 5 4 9 5 4 2 8 9 7 10 7 13 11 11 9 11
17 16 15 15 15 13 12 12 11 12 11 9 11 8 10 12 11 7 3 4 8 8 6 5 6 7 6 4 2 4 5 5 4 4 4 5 5 6 7 4 6 14 16 13 9 9 9 8 7 11 8 10 11 10
14 15 16 15 14 13 12 11 11 11 10 9 10 8 9 10 8 3 4 4 9 8 5 5 4 6 3 3 5 5 4 4 4 4 4 5 2 2 4 9 13 13 10 8 9 8 9 10 9 10 10 12 12 13
12 13 14 13 13 13 13 12 10 10 8 8 8 8 10 12 13 7 5 12 7 6 5 5 2 5 5 6 6 3 4 4 4 4 1 2 6 3 3 3 6 11 11 8 7 8 8 11 12 13 13 12 12 11
10 11 13 12 12 11 10 7 5 4 5 6 6 8 7 6 3 1 2 4 5 5 6 4 8 5 4 5 4 3 3 4 5 4 4 3 4 4 4 4 2 3 5 7 8 10 10 9 9 10 12 13 13 12
12 12 10 12 8 8 8 5 5 2 4 5 5 4 4 2 7 7 4 4 6 6 5 5 8 3 4 4 5 2 3 4 5 7 4 6 6 7 6 8 5 6 7 10 8 8 10 10 10 12 13 12 13 14
7 10 10 11 10 10 9 9 5 4 7 4 3 3 0 3 4 1 3 5 5 4 5 6 6 4 2 6 4 3 4 1 3 4 3 4 5 14 17 16 12 10 9 9 10 11 12 13 13 13 14 15 16 15
7 8 8 11 11 10 12 12 9 8 1 1 2 6 4 3 1 4 5 4 4 5 5 4 4 3 3 3 4 2 3 1 4 4 1 2 9 18 18 16 12 11 12 13 13 14 15 16 15 15 16 16 16 15
7 8 8 12 12 10 13 11 11 5 9 2 2 3 1 3 1 5 6 4 5 1 5 2 5 2 3 3 2 2 3 5 3 2 3 7 8 11 13 13 14 15 16 17 18 17 19 22 19 17 16 15 17 15
5 10 9 10 9 10 8 12 11 7 4 3 4 3 4 4 6 5 2 2 6 7 6 1 5 5 4 3 3 4 2 2 4 5 7 6 13 12 12 12 13 15 16 18 19 21 19 20 19 16 17 16 17 14
9 6 9 11 11 9 11 11 5 3 3 2 3 3 6 6 3 5 2 3 4 6 5 1 2 3 4 3 3 5 2 4 2 8 8 8 11 12 12 11 11 12 13 14 16 16 16 15 18 15 17 13 7 2
13 10 6 12 10 12 11 7 4 2 3 2 4 4 4 7 4 3 5 3 8 5 3 5 1 2 2 3 1 3 5 5 4 6 7 7 12 13 12 10 10 9 10 12 13 10 12 13 12 13 1 4 9 9
1 4 11 14 13 11 9 3 4 5 3 4 3 6 5 2 1 2 6 4 4 3 1 3 4 3 2 3 2 4 6 4 4 5 3 4 8 8 8 8 7 7 8 8 8 9 9 8 12 9 9 8 8 6
10 11 15 14 11 8 3 4 3 4 4 6 3 2 7 6 3 4 7 5 4 4 3 1 4 1 1 2 3 3 3 4 4 4 4 5 6 5 5 8 9 6 7 9 4 3 6 3 2 0 3 3 3 3
10 11 11 5 6 3 3 5 2 3 4 1 6 5 1 3 2 2 2 5 3 3 2 4 3 3 2 3 1 2 4 5 5 6 5 8 8 9 8 8 11 11 8 7 10 1 1 6 4 2 1 2 2 1
11 7 3 5 8 4 3 2 3 4 3 2 5 3 2 3 2 4 2 3 1 1 3 2 4 4 4 5 4 4 4 5 5 6 7 6 5 8 8 9 6 6 4 4 4 4 4 2 2 2 1 2 2 4
7 5 3 4 3 4 3 3 3 2 2 3 3 5 2 1 2 2 3 6 5 2 3 2 3 4 7 3 5 6 6 5 5 6 8 8 6 7 7 7 6 6 3 4 7 7 6 6 4 2 1 2 4 5
2 5 3 2 4 4 3 4 4 4 3 4 4 2 3 3 1 4 6 3 3 4 4 6 5 6 4 5 4 4 5 7 8 5 9 10 7 6 7 8 8 8 6 6 7 6 8 6 4 6 7 1 4 5
2 3 1 2 2 2 3 5 3 3 2 2 2 1 3 3 4 6 3 3 4 4 7 8 8 9 8 9 6 8 10 8 5 6 7 8 8 9 6 8 7 8 7 6 7 7 7 7 4 2 5 7 8 8
4 0 2 2 3 2 1 1 0 2 1 1 2 1 1 1 2 1 3 3 5 5 3 2 1 2 4 6 6 8 7 6 7 8 6 8 7 5 7 8 8 7 5 2 5 6 7 8 8 8 9 8 9 9
4 8 5 3 3 3 3 3 1 1 3 4 4 4 4 4 2 2 5 4 2 1 3 6 5 7 7 6 3 3 7 6 5 7 3 5 8 8 9 10 10 10 9 6 5 5 6 7 8 9 10 10 11 12
5 7 8 11 5 7 8 6 9 8 4 10 8 7 6 7 5 3 5 6 6 7 8 7 4 2 4 1 3 2 3 5 4 5 4 7 6 5 6 7 7 7 9 8 10 13 14 14 13 15 12 13 11 8
4 3 4 2 0 6 5 3 4 4 4 5 5 5 5 5 7 4 4 6 6 4 2 1 3 2 4 4 1 1 3 4 2 4 6 9 11 9 8 10 11 9 13 14 14 14 15 15 15 15 15 14 13 11
2 4 13 11 10 8 15 13 14 14 12 12 13 15 8 5 4 4 1 6 8 7 6 5 4 4 5 6 7 8 9 10 9 11 10 9 9 9 12 12 12 14 12 13 14 14 13 14 12 13 13 14 15 14
11 9 10 15 13 10 12 14 13 11 12 13 12 11 12 7 6 5 5 4 5 8 7 7 8 7 8 9 10 10 10 9 12 14 15 11 11 11 11 11 11 12 13 14 14 12 15 14 15 14 16 14 13 13
9 10 10 11 12 11 9 8 9 8 8 9 10 10 10 8 6 6 6 6 7 6 8 9 8 9 10 10 11 12 9 10 10 10 11 12 11 12 11 12 13 13 13 14 14 15 16 16 16 15 12 10 11 12
8 5 5 5 5 6 6 6 6 4 6 7 9 10 8 8 8 7 7 8 9 9 9 9 10 11 11 11 11 11 11 11 13 12 11 10 11 11 12 12 12 12 12 14 14 14 15 15 15 16 17 17 18 16
6 7 8 7 8 7 4 4 4 2 10 5 2 8 5 3 6 5 6 7 8 8 5 8 10 11 11 11 11 11 11 12 12 12 14 10 10 12 11 11 12 10 13 14 13 14 16 17 15 17 12 13 16 15
6 4 8 3 3 4 4 3 3 2 5 4 1 7 8 5 5 5 4 9 9 10 9 9 10 10 12 14 14 12 12 11 11 1 4 6 1 5 8 9 9 10 14 12 13 13 14 18 16 18 17 15 14 14
Wind_Direction
273 273 273 274 272 274 275 277 277 282 282 289 302 313 323 329 334 331 300 289 304 306 292 325 338 336 330 333 326 2 271 208 275 237 242 248 258 241 242 236 208 270 254 247 249 251 250 324 83 157 75 95 24 31
274 272 270 271 270 267 272 272 275 276 278 283 288 304 317 326 330 338 287 338 330 278 289 309 290 292 290 302 322 327 309 3 8 293 313 279 264 284 281 267 307 215 168 173 320 16 329 61 92 105 86 72 48 31
270 270 273 270 266 260 267 269 270 272 276 281 279 296 310 318 323 326 297 297 306 266 255 226 239 179 302 281 301 289 42 355 1 339 312 303 307 332 351 19 319 38 13 111 141 152 107 340 58 46 50 46 17 4
266 265 265 266 268 260 261 262 265 275 280 281 280 287 301 309 315 317 294 306 300 302 272 133 123 203 346 279 275 270 302 317 297 286 296 292 299 24 314 105 349 239 65 336 308 37 241 76 56 38 35 22 18 7
256 255 257 259 261 265 252 253 260 267 265 269 287 277 296 305 313 300 270 271 298 308 326 322 285 136 126 319 266 212 269 305 301 284 259 278 297 340 326 289 233 54 108 208 78 73 46 56 17 51 25 7 5 2
259 248 249 250 252 255 252 247 254 263 260 267 284 269 291 302 319 293 224 159 13 352 280 280 118 171 166 185 233 278 239 231 257 311 293 298 76 342 313 306 307 65 70 51 86 50 32 357 356 49 10 349 4 336
251 251 245 244 246 243 243 240 253 261 260 255 277 263 284 296 292 278 321 337 340 305 257 266 198 131 210 190 197 206 196 270 267 238 229 295 45 322 295 287 305 6 63 55 34 20 1 357 353 355 339 336 337 322
249 247 249 240 239 231 233 236 249 260 246 245 254 264 285 291 277 260 251 226 260 263 278 271 227 173 192 218 177 184 193 200 201 283 260 261 153 193 266 316 342 10 19 19 12 17 8 359 344 337 333 324 312 308
242 253 241 230 234 233 228 207 237 245 235 235 241 273 270 234 226 135 155 177 230 289 303 263 293 86 178 261 52 169 285 209 153 208 229 250 214 212 191 227 306 349 15 3 3 357 339 315 323 325 326 332 329 324
243 247 228 216 210 217 191 200 154 227 234 181 238 224 237 192 147 148 184 202 200 203 228 265 299 74 260 173 185 201 197 260 200 192 209 215 255 271 249 238 179 78 32 20 336 327 341 324 320 324 323 321 312 306
234 221 194 195 206 192 184 160 169 194 167 211 237 234 182 117 230 249 237 215 192 216 205 234 294 335 71 339 351 355 337 47 237 151 214 213 97 38 34 58 48 42 17 353 346 336 326 319 315 310 307 308 306 304
179 174 181 174 177 180 173 170 184 212 156 337 271 266 224 206 190 246 200 251 224 225 142 208 184 250 78 330 302 139 283 219 274 62 209 217 29 19 16 12 16 7 352 337 326 315 308 304 303 301 298 292 290 295
171 149 161 161 158 160 165 177 197 292 306 294 351 282 208 165 237 202 192 190 212 146 128 147 148 209 153 264 279 327 218 237 39 269 229 64 30 10 359 349 339 330 320 315 309 303 304 303 293 291 293 288 281 276
121 159 153 151 167 159 163 169 175 228 255 200 185 208 219 200 206 240 220 179 87 72 95 222 110 29 40 201 254 197 255 16 271 242 73 37 16 348 336 327 319 321 321 310 300 298 301 291 287 284 287 276 271 261
128 115 134 143 141 138 136 144 189 238 272 284 277 251 213 243 192 137 60 130 45 64 85 124 154 259 182 151 240 17 202 239 243 40 25 19 355 345 331 323 335 337 337 326 319 310 302 300 296 282 279 303 31 31
121 134 136 123 128 135 134 168 187 258 256 263 252 270 268 232 222 160 90 43 118 122 204 223 210 348 221 58 287 281 242 54 47 358 359 12 1 353 342 333 337 340 333 337 337 342 338 326 300 281 337 38 52 60
282 124 134 129 136 146 194 211 216 235 299 273 248 235 319 17 135 15 103 145 156 212 145 278 204 208 263 85 209 278 28 39 346 321 335 1 333 345 327 324 350 350 348 345 5 18 335 7 359 12 25 29 44 56
102 119 123 132 152 147 207 226 265 239 237 246 308 307 163 233 72 30 69 54 34 354 340 311 296 223 179 225 43 5 342 339 322 326 313 325 297 294 292 301 308 277 276 302 323 359 306 250 48 179 304 7 66 129
108 127 148 109 3 283 229 210 237 288 272 98 234 272 47 69 62 288 109 121 86 333 358 297 234 228 108 78 17 351 354 328 337 320 313 279 271 272 275 273 270 265 225 257 282 131 212 21 23 284 354 69 29 228
101 114 163 328 329 285 254 256 176 261 287 333 246 249 109 123 203 183 138 140 188 170 245 237 7 2 13 43 358 316 300 322 307 302 299 300 315 230 245 276 320 320 320 302 298 285 329 205 272 324 11 266 202 213
202 147 215 291 264 255 281 276 248 303 300 285 13 6 330 199 240 188 209 202 213 224 272 6 9 6 339 280 262 291 303 286 272 268 276 293 341 332 312 312 334 313 25 331 321 316 257 294 315 272 256 258 162 152
49 149 333 301 284 352 293 9 328 340 338 344 316 359 319 292 230 35 339 291 290 285 323 316 294 288 304 304 342 348 286 278 274 258 274 279 298 318 306 300 311 298 290 291 295 307 316 353 22 325 312 343 243 236
85 9 340 304 302 328 285 325 286 4 332 348 260 294 33 14 28 342 5 335 297 266 264 269 283 297 284 294 308 288 289 273 248 241 238 243 241 247 291 289 290 285 301 14 342 310 313 309 304 323 298 287 286 294
104 190 265 262 211 262 286 248 257 274 205 15 61 55 210 48 34 91 252 256 265 284 297 309 280 292 268 254 263 263 244 216 243 243 262 287 295 284 255 265 283 302 318 351 318 324 339 327 321 304 305 297 289 296
196 175 176 194 194 217 194 168 208 37 224 169 189 226 189 162 183 2 346 337 22 16 227 226 236 238 225 207 222 252 260 261 339 343 20 294 330 333 323 333 339 330 326 329 329 316 304 304 308 308 315 312 316 310
244 192 202 164 164 208 189 186 183 218 215 180 188 140 157 189 123 139 197 199 199 203 223 221 234 31 352 189 221 206 329 14 343 332 329 288 298 316 316 303 306 327 339 351 344 329 320 317 313 309 297 292 278 265
312 18 204 249 187 135 153 150 176 159 88 77 105 133 101 80 62 40 19 56 86 95 121 62 84 71 48 38 341 249 287 313 305 340 342 356 335 340 11 358 12 11 342 333 324 326 328 326 320 311 310 308 310 317
276 341 50 70 72 57 68 71 68 71 72 72 68 62 65 87 112 95 53 4 16 23 18 21 19 24 44 11 1 5 4 350 356 12 354 343 339 340 360 350 342 350 340 340 337 327 322 316 312 310 317 316 314 314
61 61 51 52 52 36 50 61 65 69 79 86 84 91 93 91 84 55 9 41 38 34 28 22 13 11 12 11 14 9 347 350 7 348 343 336 339 350 346 340 345 345 330 320 322 327 334 331 315 305 305 303 301 296
40 60 56 50 40 53 63 76 90 88 101 113 112 110 101 104 81 70 56 18 2 23 27 6 17 18 13 2 1 351 350 6 -0 354 336 338 340 332 341 346 339 330 319 319 331 328 329 328 323 312 321 352 4 356
54 53 66 83 57 49 46 61 60 104 129 130 113 104 101 105 89 62 44 22 15 16 34 6 12 13 6 3 349 346 349 348 339 344 5 343 335 341 346 337 331 315 326 339 327 326 330 327 330 322 332 8 14 5
40 331 50 25 314 5 28 12 13 15 92 109 72 128 123 126 99 76 30 20 29 357 21 17 13 359 7 353 349 348 347 332 340 358 352 345 338 341 336 323 308 342 337 323 328 329 336 339 333 332 345 348 347 345
35 357 324 151 128 355 322 80 106 244 328 3 104 122 139 115 79 56 53 27 14 351 18 22 6 353 3 355 347 340 341 336 345 91 140 103 182 275 302 317 330 336 319 327 325 327 344 337 330 329 359 355 354 345